This is the latest recevied weather packets stored in our database for station/object KE7JVX-3. If no packets are shown the sender has not sent any weather packets the latest 10 day(s).
| Time | Temp. | Humidity | Pressure | Rain* | Wind** | Luminosity | Snow |
|---|---|---|---|---|---|---|---|
| 1777914149 | 6.67° C | 44% | 1010.6 hPa | 0 mm | - | - | - |
| 1777913548 | 6.67° C | 45% | 1010.4 hPa | 0 mm | - | - | - |
| 1777912952 | 6.11° C | 49% | 1010.4 hPa | 0 mm | - | - | - |
| 1777912348 | 6.11° C | 48% | 1010.5 hPa | 0 mm | - | - | - |
| 1777911748 | 6.11° C | 51% | 1010.3 hPa | 0 mm | - | - | - |
| 1777911149 | 5.56° C | 50% | 1010.2 hPa | 0 mm | - | - | - |
| 1777910548 | 5.56° C | 50% | 1010 hPa | 0 mm | - | - | - |
| 1777909950 | 5.56° C | 47% | 1010 hPa | 0 mm | - | - | - |
| 1777909348 | 5.56° C | 54% | 1010.3 hPa | 0 mm | - | - | - |
| 1777908749 | 5.56° C | 58% | 1010.4 hPa | 0 mm | - | - | - |
| 1777908148 | 5° C | 60% | 1010.3 hPa | 0 mm | - | - | - |
| 1777907548 | 5° C | 61% | 1010.3 hPa | 0 mm | - | - | - |
| 1777906948 | 5° C | 63% | 1010.1 hPa | 0 mm | - | - | - |
| 1777906348 | 5° C | 61% | 1010.1 hPa | 0 mm | - | - | - |
| 1777905749 | 4.44° C | 65% | 1010.1 hPa | 0 mm | - | - | - |
| 1777905148 | 4.44° C | 68% | 1010.2 hPa | 0 mm | - | - | - |
| 1777904550 | 4.44° C | 67% | 1010.3 hPa | 0 mm | - | - | - |
| 1777903949 | 4.44° C | 67% | 1010.2 hPa | 0 mm | - | - | - |
| 1777903348 | 4.44° C | 66% | 1010.2 hPa | 0 mm | - | - | - |
| 1777902748 | 4.44° C | 66% | 1010.3 hPa | 0 mm | - | - | - |
| 1777902148 | 4.44° C | 65% | 1010.2 hPa | 0 mm | - | - | - |
| 1777901548 | 4.44° C | 66% | 1009.9 hPa | 0 mm | - | - | - |
| 1777900948 | 4.44° C | 66% | 1009.9 hPa | 0 mm | - | - | - |
| 1777900348 | 4.44° C | 67% | 1009.7 hPa | 0 mm | - | - | - |
| 1777899748 | 3.89° C | 69% | 1009.9 hPa | 0 mm | - | - | - |
* Rain latest hour (hover to see other rain measurements)
** Current wind speed in m/s (hover to see current wind gust speed)